Location: Clanezzo
(45.7500°N, 9.6000°E)
Time: 14:06:31
(UTC+00:00)

BREEZE-M R/B - Pass Details

Date: 12 May 2021
Orbit: 311 x 4501 km, 49.7° (Epoch: 19 June)

Event Time Altitude Azimuth Distance (km) Brightness Sun altitude
Rises 19:43:31 0° 257° (WSW) 2,427 6.7 -9.6°
Reaches altitude 10° 19:45:51 10° 262° (W) 1,341 5.4 -10.0°
Maximum altitude 19:48:29 55° 342° (NNW) 385 2.4 -10.3°
Drops below altitude 10° 19:50:54 10° 63° (ENE) 1,228 4.4 -10.6°
Enters shadow 19:52:37 - 68° (ENE) 2,034 5.5 -10.9°
